#timestamp,LO_Frequency,Hit,StdDev 
1710745215.7,286046990.7,N
1710745235.6,286046996.0,N
1710745255.4,286046993.1,N
1710745275.2,286046989.8,N
1710745295.1,286046987.0,N
1710745296.0,286046987.0,N
1710745315.8,286046984.7,N
1710745335.7,286046986.1,N
1710745355.5,286046983.5,N
1710745375.3,286046977.3,Y
1710745395.2,286046981.0,P
1710745415.0,286046976.0,P
1710745415.9,286046976.0,P
1710745435.8,286046974.7,Y
1710745455.6,286046992.7,P
1710745475.4,286046987.5,N
1710745495.3,286046986.6,P
1710745515.1,286046984.8,Y
1710745535.8,286046993.7,P
1710745555.7,286046996.5,N
1710745575.5,286046995.6,N
1710745595.4,286046995.1,N
1710745615.2,286047003.1,N
1710745635.0,286047006.3,N
1710745635.9,286047006.3,N
1710745655.8,286047008.7,N
1710745675.6,286047010.6,N
1710745695.4,286047012.7,N
1710745715.3,286047016.7,N
1710745735.1,286047023.6,N
1710745755.9,286047023.0,N
1710745775.7,286047022.5,N
1710745795.5,286047021.1,N
1710745815.4,286047015.5,N
1710745835.2,286047011.8,N
1710745855.0,286047008.7,N
1710745855.9,286047008.7,N
1710745875.8,286047007.4,N
1710745895.6,286047004.3,N
1710745915.5,286047005.1,N
1710745935.3,286047003.8,N
1710745955.1,286047000.1,N
1710745975.9,286046997.4,N
1710745995.7,286046995.5,N
1710746015.5,286047000.0,N
1710746035.4,286046999.4,N
1710746055.2,286046998.6,N
1710746075.1,286046992.1,N
1710746076.0,286046992.1,N
1710746095.8,286046992.9,N
1710746115.6,286046990.1,N
1710746135.5,286046986.9,N
1710746155.3,286046992.8,N
1710746175.1,286046989.4,N
1710746195.9,286046989.4,N
1710746215.7,286046992.8,N
1710746235.6,286046992.5,N
1710746255.4,286046989.4,N
1710746275.2,286046985.3,N
1710746295.1,286046982.5,N
1710746296.0,286046982.5,N
1710746315.8,286046981.9,N
1710746335.6,286046979.6,N
1710746355.5,286046975.4,N
1710746375.3,286046971.8,Y
1710746395.2,286046974.5,P
1710746415.0,286046973.1,N
1710746415.9,286046973.1,N
1710746435.7,286046971.3,Y
1710746455.6,286046993.4,P
1710746475.4,286047002.3,N
1710746495.3,286047003.3,N
1710746515.1,286047003.3,N
1710746516.0,286047003.3,N
1710746535.8,286047000.1,N
1710746555.7,286046997.2,N
1710746575.5,286046995.8,N
1710746595.3,286046996.4,N
1710746615.2,286046998.8,N
1710746635.0,286047001.5,N
1710746635.9,286047001.5,N
1710746655.8,286047000.8,N
1710746675.6,286046996.7,N
1710746695.4,286047002.0,N
1710746715.3,286047000.7,N
1710746735.1,286046997.4,N
1710746755.9,286046998.0,N
1710746775.7,286046992.6,N
1710746795.5,286046988.5,N
1710746815.4,286046985.5,N
1710746835.2,286046986.7,N
1710746855.0,286046984.0,N
1710746855.9,286046984.0,N
1710746875.8,286046986.8,N
1710746895.6,286046983.9,N
1710746915.5,286046982.4,N
1710746935.3,286046982.8,N
1710746955.1,286046982.7,N
1710746975.9,286046984.8,N
1710746995.7,286046982.5,N
1710747015.6,286046983.5,N
1710747035.4,286046980.9,N
1710747055.2,286046983.4,N
1710747075.1,286046980.3,N
1710747076.0,286046980.3,N
1710747095.8,286046977.7,N
1710747115.6,286046983.2,N
1710747135.5,286046985.3,N
1710747155.3,286046983.6,N
1710747175.2,286046985.5,N
1710747195.9,286046979.5,N
1710747215.7,286046979.9,N
1710747235.6,286046976.4,Y
1710747255.4,286046990.0,P
1710747275.3,286046988.3,P
1710747295.1,286046989.1,P
1710747296.0,286046989.1,Y
1710747315.8,286046996.4,P
1710747335.7,286046993.1,N
1710747355.5,286046987.1,P
1710747375.3,286046990.3,N
1710747395.2,286046991.1,N
1710747415.0,286046993.2,N
1710747415.9,286046993.2,N
1710747435.8,286046988.9,Y
1710747455.6,286046997.5,P
1710747475.4,286046999.1,N
1710747495.3,286046995.7,N
1710747515.1,286046993.3,N
1710747535.9,286046995.6,N
1710747555.7,286046997.2,N
1710747575.5,286046994.0,N
1710747595.4,286046990.9,Y
1710747615.2,286046995.4,P
1710747635.0,286046993.3,P
1710747635.9,286046993.3,P
1710747655.8,286046993.7,Y
1710747675.6,286047003.2,P
1710747695.5,286047004.0,N
1710747715.3,286047000.7,N
1710747735.1,286046998.6,N
1710747755.9,286046997.6,N
1710747775.7,286046997.5,N
1710747795.5,286046995.0,N
1710747815.4,286046996.0,N
1710747835.2,286046994.0,N
1710747855.1,286046994.2,N
1710747856.0,286046994.2,N
1710747875.8,286046993.7,N
1710747895.6,286046994.3,N
1710747915.5,286046992.8,N
1710747935.3,286046986.9,Y
1710747955.1,286046990.4,P
1710747975.9,286046991.1,N
1710747995.7,286046996.4,N
1710748015.6,286046993.5,N
1710748035.4,286046989.5,Y
1710748055.2,286046993.0,P
1710748075.1,286046992.4,P
1710748076.0,286046992.4,P
1710748095.8,286046992.4,Y
1710748115.7,286046999.0,P
1710748135.5,286046999.0,N
1710748155.3,286046998.5,N
1710748175.2,286047000.9,N
1710748195.0,286046997.1,N
1710748195.9,286046997.1,N
1710748215.7,286046995.3,N
1710748235.6,286046997.6,N
1710748255.4,286046996.3,N
1710748275.3,286046992.8,Y
1710748295.1,286046994.0,P
1710748315.8,286046994.5,P
1710748335.7,286046991.8,P
1710748355.5,286046990.9,Y
1710748375.4,286046995.6,P
1710748395.2,286046997.1,P
1710748415.0,286046995.6,P
1710748415.9,286046995.6,Y
1710748435.8,286046998.1,P
1710748455.6,286046997.0,N
1710748475.5,286046993.4,P
1710748495.3,286046993.1,Y
1710748515.1,286046991.8,P
1710748535.9,286046994.8,N
1710748555.7,286046995.3,N
1710748575.5,286046996.4,N
1710748595.4,286046993.5,Y
1710748615.2,286047001.0,P
1710748635.1,286046998.3,N
1710748636.0,286046998.3,N
1710748655.8,286047000.3,N
1710748675.6,286046999.2,N
1710748695.5,286046997.9,N
1710748715.3,286046995.6,N
1710748735.1,286046994.5,N
1710748755.9,286046993.7,N
1710748775.7,286046993.3,N
1710748795.6,286046994.4,N
